Sigfox identifier Datetime Temperature Humidity SNR
003C0D50 2019-02-20 14:01:33 20.9 22 24.8
003C0D50 2019-02-20 13:31:18 20.9 23 24.8
003C0D50 2019-02-20 13:01:03 20.9 24 24.2
003C0D50 2019-02-20 12:30:48 20.9 25 23.5
003C0D50 2019-02-20 12:00:33 20.8 25 23.6
003C0D50 2019-02-20 11:30:17 20.9 26 22.8
003C0D50 2019-02-20 11:00:02 20.8 27 22
003C0D50 2019-02-20 10:29:47 20.7 27 22.1
003C0D50 2019-02-20 09:59:33 20.7 27 22
003C0D50 2019-02-20 09:29:18 20.7 27 22
003C0D50 2019-02-20 08:59:03 20.6 27 20.9
003C0D50 2019-02-20 08:28:48 20.6 27 20.8
003C0D50 2019-02-20 07:58:32 20.6 27 20.8
003C0D50 2019-02-20 07:28:18 20.6 27 20.8
003C0D50 2019-02-20 06:58:03 20.6 28 20.8
003C0D50 2019-02-20 06:27:48 20.6 27 19.1
003C0D50 2019-02-20 05:57:33 20.7 27 19.3
003C0D50 2019-02-20 05:27:19 20.7 28 19.4
003C0D50 2019-02-20 04:57:04 20.7 27 19.4
003C0D50 2019-02-20 04:26:49 20.7 28 19.3
003C0D50 2019-02-20 03:56:35 20.7 27 19.2
003C0D50 2019-02-20 03:26:20 20.7 27 18.9
003C0D50 2019-02-20 02:56:06 20.7 27 18.8
003C0D50 2019-02-20 02:25:51 20.7 27 18.7
003C0D50 2019-02-20 01:55:37 20.7 27 20.5
003C0D50 2019-02-20 01:25:22 20.7 27 20.5
003C0D50 2019-02-20 00:55:07 20.7 27 20.5
003C0D50 2019-02-20 00:24:53 20.7 27 20.5
003C0D50 2019-02-19 23:54:40 20.7 27 20.7
003C0D50 2019-02-19 23:24:26 20.7 27 20.6
003C0D50 2019-02-19 22:54:12 20.7 27 21.8
003C0D50 2019-02-19 22:23:58 21 27 21.8
003C0D50 2019-02-19 22:22:49 20.7 27 21.7
003C0D50 2019-02-19 21:52:35 20.8 27 22.7
003C0D50 2019-02-19 21:22:18 20.8 27 22.6
003C0D50 2019-02-19 20:52:05 20.8 27 22.6
003C0D50 2019-02-19 20:21:50 20.8 27 22.5
003C0D50 2019-02-19 19:51:36 20.8 27 22.4
003C0D50 2019-02-19 19:21:22 20.8 27 22.4
003C0D50 2019-02-19 18:51:07 20.9 27 22.5
003C0D50 2019-02-19 18:20:53 20.9 27 22.5
003C0D50 2019-02-19 17:50:38 21 27 22.4
003C0D50 2019-02-19 17:20:24 21.1 27 22.3
003C0D50 2019-02-19 16:50:10 21.1 28 22.4
003C0D50 2019-02-19 16:19:57 21.1 28 22.5
003C0D50 2019-02-19 15:49:42 21 28 22.5
003C0D50 2019-02-19 15:19:29 21 27 22.7
003C0D50 2019-02-19 14:49:17 21.1 27 22.9
003C0D50 2019-02-19 14:19:01 21.1 28 23
003C0D50 2019-02-19 13:48:47 21.1 28 22.2
003C0D50 2019-02-19 13:18:32 21 27 22.3
003C0D50 2019-02-19 12:48:17 20.9 27 22.4
003C0D50 2019-02-19 12:18:02 21 27 22.3
003C0D50 2019-02-19 11:47:46 21 27 22.3
003C0D50 2019-02-19 11:17:31 21 27 22.5
003C0D50 2019-02-19 10:47:17 21 27 21.5
003C0D50 2019-02-19 10:17:03 20.9 27 21.6
003C0D50 2019-02-19 09:46:48 20.8 26 21.7
003C0D50 2019-02-19 09:16:33 20.8 26 20.5
003C0D50 2019-02-19 08:46:19 20.7 26 20.6
003C0D50 2019-02-19 08:16:03 20.7 25 20.7
003C0D50 2019-02-19 07:45:50 20.7 25 20.8
003C0D50 2019-02-19 07:15:35 20.7 25 20.9
003C0D50 2019-02-19 06:45:22 20.7 25 21.1
003C0D50 2019-02-19 06:15:09 20.7 25 21
003C0D50 2019-02-19 05:44:56 20.7 25 21.2
003C0D50 2019-02-19 05:14:43 20.7 25 21.2
003C0D50 2019-02-19 04:44:28 20.7 25 21.5
003C0D50 2019-02-19 04:14:15 20.7 25 21.4
003C0D50 2019-02-19 03:44:01 20.7 24 21.3
003C0D50 2019-02-19 03:13:47 20.7 24 21.3
003C0D50 2019-02-19 02:43:35 20.7 24 21.1
003C0D50 2019-02-19 02:13:19 20.7 24 20.8
003C0D50 2019-02-19 01:43:05 20.7 24 20.6
003C0D50 2019-02-19 01:12:51 20.7 24 20.4
003C0D50 2019-02-19 00:42:37 20.7 24 20.1
003C0D50 2019-02-19 00:12:24 20.7 24 20.1
003C0D50 2019-02-18 23:42:12 20.7 23 20.3
003C0D50 2019-02-18 23:11:57 20.7 23 20.5
003C0D50 2019-02-18 22:41:44 20.7 23 20.5
003C0D50 2019-02-18 21:41:17 21 23 20.3
003C0D50 2019-02-18 21:40:06 20.7 23 20.3
003C0D50 2019-02-18 21:09:53 20.8 23 20.2
003C0D50 2019-02-18 20:39:40 20.8 23 20.3
003C0D50 2019-02-18 20:09:27 20.8 22 20.3
003C0D50 2019-02-18 19:39:15 20.8 22 20.5
003C0D50 2019-02-18 19:09:02 20.8 22 20.8
003C0D50 2019-02-18 18:38:48 20.8 22 20.7
003C0D50 2019-02-18 18:08:36 20.9 22 20.7
003C0D50 2019-02-18 17:38:23 20.9 22 22
003C0D50 2019-02-18 17:08:11 20.9 22 22
003C0D50 2019-02-18 16:37:58 20.9 22 22.1
003C0D50 2019-02-18 16:07:46 21 22 22.3
003C0D50 2019-02-18 15:37:38 21 21 22.5
003C0D50 2019-02-18 15:07:24 21.1 21 22.5
003C0D50 2019-02-18 14:37:10 21.2 21 22.7
003C0D50 2019-02-18 14:06:58 21.1 21 22.9
003C0D50 2019-02-18 13:36:48 21.2 20 23.1
003C0D50 2019-02-18 13:06:35 21.3 20 23.3
003C0D50 2019-02-18 12:36:23 21.5 19 23.5
003C0D50 2019-02-18 12:06:12 21.6 19 23.5
003C0D50 2019-02-18 11:36:01 21.5 19 23.5
003C0D50 2019-02-18 11:05:50 21.4 19 23.5
003C0D50 2019-02-18 10:35:38 21.4 19 23.4
003C0D50 2019-02-18 10:05:26 21.4 19 23.5
003C0D50 2019-02-18 09:35:14 21.2 19 23.6
003C0D50 2019-02-18 09:05:01 21.2 19 23.7
003C0D50 2019-02-18 08:34:49 21.1 18 23.8
003C0D50 2019-02-18 08:04:37 21 18 23.9
003C0D50 2019-02-18 07:34:25 21 18 24.4
003C0D50 2019-02-18 07:04:11 20.9 18 24.3
003C0D50 2019-02-18 06:33:58 20.9 18 24.3
003C0D50 2019-02-18 06:03:46 20.9 18 24.4
003C0D50 2019-02-18 05:33:33 20.9 18 24.4
003C0D50 2019-02-18 05:03:21 20.9 18 23.9
003C0D50 2019-02-18 04:33:10 20.9 18 23.8
003C0D50 2019-02-18 04:02:58 20.9 18 23.9
003C0D50 2019-02-18 03:32:46 20.9 19 23.9
003C0D50 2019-02-18 03:02:33 20.9 19 24
003C0D50 2019-02-18 02:32:23 21 19 24.1
003C0D50 2019-02-18 02:02:11 21 19 24.1
003C0D50 2019-02-18 01:31:59 21 19 24.1
003C0D50 2019-02-18 01:01:47 21 19 24.2
003C0D50 2019-02-18 00:31:36 21 19 24.2
003C0D50 2019-02-18 00:01:24 21 19 24.2
003C0D50 2019-02-17 23:31:12 21 19 24.2
003C0D50 2019-02-17 23:00:58 21 19 24.2
003C0D50 2019-02-17 22:30:46 21 19 24.2
003C0D50 2019-02-17 22:00:33 21 19 24.3
003C0D50 2019-02-17 21:30:21 21 19 24.3
003C0D50 2019-02-17 21:00:08 21.3 19 24.3
003C0D50 2019-02-17 20:58:58 21 19 24.3
003C0D50 2019-02-17 20:28:46 21 19 24.3
003C0D50 2019-02-17 19:58:34 21.1 20 24.3
003C0D50 2019-02-17 19:28:22 21.1 20 23.8
003C0D50 2019-02-17 18:58:09 21.1 20 23.7
003C0D50 2019-02-17 18:27:55 21.1 20 23.8
003C0D50 2019-02-17 17:57:41 21.1 20 23.9
003C0D50 2019-02-17 17:27:28 21.2 20 24
003C0D50 2019-02-17 16:57:15 21.2 19 24
003C0D50 2019-02-17 16:27:02 21.2 20 23.9
003C0D50 2019-02-17 15:56:50 21.2 20 23.9
003C0D50 2019-02-17 15:26:37 21.2 20 23.8
003C0D50 2019-02-17 14:56:26 21.2 21 23.8
003C0D50 2019-02-17 14:26:13 21.2 20 23.7
003C0D50 2019-02-17 13:56:00 21.2 20 23.7
003C0D50 2019-02-17 13:25:47 21.2 20 23.8
003C0D50 2019-02-17 12:55:34 21.2 20 23.8
003C0D50 2019-02-17 12:25:21 21.2 20 23.9
003C0D50 2019-02-17 11:55:06 21.1 20 23.9
003C0D50 2019-02-17 11:24:53 21.1 20 23.9
003C0D50 2019-02-17 10:54:38 21.1 21 23.9
003C0D50 2019-02-17 10:24:24 21.1 21 24.1
003C0D50 2019-02-17 09:54:10 21 21 24.1
003C0D50 2019-02-17 09:23:57 21 21 24
003C0D50 2019-02-17 08:53:42 21 21 24
003C0D50 2019-02-17 08:23:30 21 21 24
003C0D50 2019-02-17 07:53:16 21 21 24
003C0D50 2019-02-17 07:23:04 21 21 24
003C0D50 2019-02-17 06:52:51 21.1 22 24
003C0D50 2019-02-17 06:22:39 21.1 22 24.1
003C0D50 2019-02-17 05:52:27 21.1 22 24.1
003C0D50 2019-02-17 05:22:15 21.1 22 24.2
003C0D50 2019-02-17 04:52:03 21.1 22 24.1
003C0D50 2019-02-17 04:21:50 21.1 22 24.3
003C0D50 2019-02-17 03:51:38 21.1 23 24.3
003C0D50 2019-02-17 03:21:25 21.1 23 24.3
003C0D50 2019-02-17 02:51:13 21.1 23 24.4
003C0D50 2019-02-17 02:21:01 21.1 23 24.3
003C0D50 2019-02-17 01:50:50 21.1 24 24.4
003C0D50 2019-02-17 01:20:37 21.1 24 24.3
003C0D50 2019-02-17 00:50:25 21.1 24 24.3
003C0D50 2019-02-17 00:20:13 21.1 24 24.2
003C0D50 2019-02-16 23:50:00 21.1 24 24.1
003C0D50 2019-02-16 23:19:48 21.1 24 24.1
003C0D50 2019-02-16 22:49:36 21.2 24 24.2
003C0D50 2019-02-16 22:19:25 21.2 24 24.1
003C0D50 2019-02-16 21:49:12 21.2 25 23.9
003C0D50 2019-02-16 21:19:00 21.2 25 24
003C0D50 2019-02-16 20:48:48 21.2 25 24
003C0D50 2019-02-16 20:18:36 21.4 25 24.1
003C0D50 2019-02-16 20:17:25 21.2 25 24.1
003C0D50 2019-02-16 19:47:13 21.2 25 24.1
003C0D50 2019-02-16 19:17:00 21.2 25 24.1
003C0D50 2019-02-16 18:46:48 21.2 25 24
003C0D50 2019-02-16 18:16:35 21.2 25 23.9
003C0D50 2019-02-16 17:46:24 21.3 25 23.9
003C0D50 2019-02-16 17:16:12 21.4 25 23.8
003C0D50 2019-02-16 16:46:00 21.4 25 23.7
003C0D50 2019-02-16 16:15:47 21.4 25 23.7
003C0D50 2019-02-16 15:45:35 21.4 25 23.8
003C0D50 2019-02-16 15:15:23 21.5 25 23.8
003C0D50 2019-02-16 14:45:12 21.5 25 23.8
003C0D50 2019-02-16 14:14:59 21.4 25 24.4
003C0D50 2019-02-16 13:44:46 21.4 25 24.3
003C0D50 2019-02-16 13:14:34 21.3 25 24.3
003C0D50 2019-02-16 12:44:21 21.3 25 24.2
003C0D50 2019-02-16 12:14:09 21.3 25 24.3
003C0D50 2019-02-16 11:43:58 21.2 25 24.2
003C0D50 2019-02-16 11:13:46 21.2 25 24.2
003C0D50 2019-02-16 10:43:35 21.2 25 24.1
003C0D50 2019-02-16 10:13:23 21.1 25 24.1
003C0D50 2019-02-16 09:43:10 21.2 25 24.1
003C0D50 2019-02-16 09:12:57 21.1 25 24.2
003C0D50 2019-02-16 08:42:45 21.2 25 24.3
003C0D50 2019-02-16 08:12:32 21.2 25 24.2
003C0D50 2019-02-16 07:42:20 21.1 25 24.2
003C0D50 2019-02-16 07:12:08 21.2 25 24.1
003C0D50 2019-02-16 06:41:54 21.2 25 24.1
003C0D50 2019-02-16 06:11:41 21.2 26 24.2
003C0D50 2019-02-16 05:41:29 21.2 26 24.2
003C0D50 2019-02-16 05:11:16 21.2 26 24.3
003C0D50 2019-02-16 04:41:04 21.2 25 24.3
003C0D50 2019-02-16 04:10:51 21.2 25 24.2
003C0D50 2019-02-16 03:40:38 21.2 25 24.1
003C0D50 2019-02-16 03:10:26 21.2 25 24
003C0D50 2019-02-16 02:40:13 21.2 25 24
003C0D50 2019-02-16 02:10:01 21.2 25 23.9
003C0D50 2019-02-16 01:39:49 21.2 25 23.4
003C0D50 2019-02-16 01:09:36 21.2 25 23.4
003C0D50 2019-02-16 00:39:24 21.2 26 23.4
003C0D50 2019-02-16 00:09:12 21.3 26 24
003C0D50 2019-02-15 23:39:01 21.3 26 24
003C0D50 2019-02-15 23:08:49 21.3 26 24
003C0D50 2019-02-15 22:38:37 21.4 25 24
003C0D50 2019-02-15 22:08:23 21.4 26 23.9
003C0D50 2019-02-15 21:38:11 21.4 26 23.9
003C0D50 2019-02-15 21:07:58 21.5 25 24
003C0D50 2019-02-15 20:37:45 21.6 25 23.9
003C0D50 2019-02-15 20:07:33 21.6 25 23.8
003C0D50 2019-02-15 19:37:19 21.9 25 23.8
003C0D50 2019-02-15 19:36:09 21.6 25 23.7
003C0D50 2019-02-15 19:05:55 21.7 25 23.8
003C0D50 2019-02-15 18:35:42 21.8 25 23.9
003C0D50 2019-02-15 18:05:30 21.8 25 23.9
003C0D50 2019-02-15 17:35:17 21.9 25 23.9
003C0D50 2019-02-15 17:05:04 21.8 25 23.8
003C0D50 2019-02-15 16:34:51 21.8 24 23.8
003C0D50 2019-02-15 16:04:37 21.8 24 23.8
003C0D50 2019-02-15 15:34:24 21.8 24 23.9
003C0D50 2019-02-15 15:04:10 21.8 24 24
003C0D50 2019-02-15 14:33:57 21.8 23 24
003C0D50 2019-02-15 14:03:43 21.8 24 24.1
003C0D50 2019-02-15 13:33:30 21.8 24 24.1
003C0D50 2019-02-15 13:03:16 21.7 24 24.1
003C0D50 2019-02-15 12:33:02 21.7 24 24.1
003C0D50 2019-02-15 12:02:50 21.7 24 23.5
003C0D50 2019-02-15 11:32:37 21.6 24 23.4
003C0D50 2019-02-15 11:02:23 21.6 24 23.5
003C0D50 2019-02-15 10:32:08 21.5 25 23.4
003C0D50 2019-02-15 10:01:53 21.5 25 23.7
003C0D50 2019-02-15 09:31:39 21.5 25 23.7
003C0D50 2019-02-15 09:01:25 21.4 25 23.5
003C0D50 2019-02-15 08:31:12 21.4 25 23.5
003C0D50 2019-02-15 08:00:57 21.3 25 23.7
003C0D50 2019-02-15 07:30:44 21.3 25 23.7
003C0D50 2019-02-15 07:00:30 21.3 25 23.7
003C0D50 2019-02-15 06:30:16 21.3 25 23.7
003C0D50 2019-02-15 06:00:04 21.3 25 23.6
003C0D50 2019-02-15 05:29:50 21.3 25 23.7
003C0D50 2019-02-15 04:59:37 21.3 25 23.5
003C0D50 2019-02-15 04:29:22 21.3 26 23.4
003C0D50 2019-02-15 03:59:08 21.3 26 23.3
003C0D50 2019-02-15 03:28:54 21.3 26 23.2
003C0D50 2019-02-15 02:58:40 21.3 26 23
003C0D50 2019-02-15 02:28:27 21.3 26 22.9
003C0D50 2019-02-15 01:58:13 21.3 26 22.6
003C0D50 2019-02-15 01:27:59 21.4 26 22.6
003C0D50 2019-02-15 00:57:45 21.4 26 22.4
003C0D50 2019-02-15 00:27:32 21.4 26 22.3
003C0D50 2019-02-14 23:57:18 21.4 25 22.2
003C0D50 2019-02-14 23:27:03 21.4 25 22.1
003C0D50 2019-02-14 22:56:47 21.4 25 22.1
003C0D50 2019-02-14 22:26:31 21.4 25 22
003C0D50 2019-02-14 21:56:14 21.5 25 21.9
003C0D50 2019-02-14 21:25:59 21.5 25 21.5
003C0D50 2019-02-14 20:55:44 21.6 25 21.6
003C0D50 2019-02-14 20:25:29 21.6 24 21.5
003C0D50 2019-02-14 19:55:14 21.7 24 21.5
003C0D50 2019-02-14 19:24:59 21.8 24 21.1
003C0D50 2019-02-14 18:54:44 22 24 21.2
003C0D50 2019-02-14 18:53:34 21.8 24 21.2
003C0D50 2019-02-14 18:23:19 21.8 24 21
003C0D50 2019-02-14 17:53:02 21.9 24 21
003C0D50 2019-02-14 17:22:46 21.9 24 20.7
003C0D50 2019-02-14 16:52:30 22 24 20.9
003C0D50 2019-02-14 16:22:14 22 25 21
003C0D50 2019-02-14 15:51:59 21.9 24 21.1
003C0D50 2019-02-14 15:21:43 21.8 24 21.3
003C0D50 2019-02-14 14:51:28 21.8 24 21.5
003C0D50 2019-02-14 14:21:13 21.7 24 21.6
003C0D50 2019-02-14 13:50:59 21.7 24 21.6
003C0D50 2019-02-14 13:20:44 21.6 24 21.7
003C0D50 2019-02-14 12:50:30 21.5 24 21.8
003C0D50 2019-02-14 12:20:15 21.4 23 21.8
003C0D50 2019-02-14 11:50:01 21.4 24 21.8
003C0D50 2019-02-14 11:19:46 21.4 24 21.8
003C0D50 2019-02-14 10:49:32 21.1 24 21.9
003C0D50 2019-02-14 10:19:17 21.1 24 21.9
003C0D50 2019-02-14 09:49:04 21 24 21.7
003C0D50 2019-02-14 09:18:49 21 24 21.9
003C0D50 2019-02-14 08:48:35 20.8 24 21.9
003C0D50 2019-02-14 08:18:21 20.8 24 21.9
003C0D50 2019-02-14 07:48:07 20.9 25 21.9
003C0D50 2019-02-14 07:17:52 20.9 25 21.9
003C0D50 2019-02-14 06:47:40 20.9 25 21.9
003C0D50 2019-02-14 06:17:27 20.9 25 21.9
003C0D50 2019-02-14 05:47:13 20.9 25 21.9
003C0D50 2019-02-14 05:16:58 20.9 25 22
003C0D50 2019-02-14 04:46:43 20.9 25 22
003C0D50 2019-02-14 04:16:27 20.9 25 21.9
003C0D50 2019-02-14 03:46:12 20.9 25 21.8
003C0D50 2019-02-14 03:15:59 20.9 25 21.7
003C0D50 2019-02-14 02:45:45 20.9 25 21.5
003C0D50 2019-02-14 02:15:31 20.9 25 21.4
003C0D50 2019-02-14 01:45:16 20.9 25 21.2
003C0D50 2019-02-14 01:15:02 20.9 25 21.3
003C0D50 2019-02-14 00:44:48 20.9 25 21
003C0D50 2019-02-14 00:14:33 21 25 21.1
003C0D50 2019-02-13 23:44:20 21 25 21.2
003C0D50 2019-02-13 23:14:07 21 25 21.4
003C0D50 2019-02-13 22:43:53 21.1 25 21.4
003C0D50 2019-02-13 22:13:39 21.1 25 21.4
003C0D50 2019-02-13 21:43:25 21.1 25 22.3
003C0D50 2019-02-13 21:13:11 21.2 25 22.5
003C0D50 2019-02-13 20:42:56 21.2 25 22.5
003C0D50 2019-02-13 20:12:43 21.3 25 22.5
003C0D50 2019-02-13 19:42:28 21.3 25 22.5
003C0D50 2019-02-13 19:12:13 21.4 25 22.5
003C0D50 2019-02-13 18:41:59 21.5 25 22.5
003C0D50 2019-02-13 18:11:44 21.8 26 22.4
003C0D50 2019-02-13 18:10:33 21.6 26 22.4
003C0D50 2019-02-13 17:40:19 21.5 26 22.4
003C0D50 2019-02-13 17:10:05 21.5 26 22.5
003C0D50 2019-02-13 16:39:52 21.4 26 22.5
003C0D50 2019-02-13 16:09:37 21.4 25 22.4
003C0D50 2019-02-13 15:39:23 21.3 25 22.5
003C0D50 2019-02-13 15:09:09 21.2 25 22.6
003C0D50 2019-02-13 14:38:54 21.2 25 22.6
003C0D50 2019-02-13 14:08:39 21.2 24 22.6
003C0D50 2019-02-13 13:38:26 21.2 24 22.7
003C0D50 2019-02-13 13:08:12 21.2 24 22.8
003C0D50 2019-02-13 12:37:58 21.2 24 22.9
003C0D50 2019-02-13 12:07:43 21.2 24 22.9
003C0D50 2019-02-13 11:37:29 21.2 24 23.5
003C0D50 2019-02-13 11:07:15 21.1 24 23.5
003C0D50 2019-02-13 10:37:01 21 24 23.4
003C0D50 2019-02-13 10:06:47 21 23 23.5
003C0D50 2019-02-13 09:36:33 20.9 22 22.8
003C0D50 2019-02-13 09:06:20 20.9 22 22.7
003C0D50 2019-02-13 08:36:06 20.8 21 22.7
003C0D50 2019-02-13 08:05:52 20.8 20 22.8
003C0D50 2019-02-13 07:35:38 20.8 19 22.7
003C0D50 2019-02-13 07:05:24 20.9 19 22.8
003C0D50 2019-02-13 06:35:10 20.9 19 22.8
003C0D50 2019-02-13 06:04:57 20.9 19 22.8
003C0D50 2019-02-13 05:34:42 20.9 19 22.7
003C0D50 2019-02-13 05:04:29 20.9 19 22.6
003C0D50 2019-02-13 04:34:15 20.9 19 22.5
003C0D50 2019-02-13 04:04:01 20.9 19 22.7
003C0D50 2019-02-13 03:33:47 20.9 19 22.7
003C0D50 2019-02-13 03:03:33 20.9 19 22.7
003C0D50 2019-02-13 02:33:19 20.9 19 22.7
003C0D50 2019-02-13 02:03:05 20.9 19 22.7
003C0D50 2019-02-13 01:32:50 20.9 19 22.6
003C0D50 2019-02-13 01:02:35 21 19 22.6
003C0D50 2019-02-13 00:32:21 21 19 22.5
003C0D50 2019-02-13 00:02:06 21 20 22.4
003C0D50 2019-02-12 23:31:51 21 19 22.4
003C0D50 2019-02-12 23:01:36 21 19 21.5
003C0D50 2019-02-12 22:31:22 21.1 19 21.5
003C0D50 2019-02-12 22:01:07 21.2 20 21.4
003C0D50 2019-02-12 21:30:52 21.2 20 21.3
003C0D50 2019-02-12 21:00:36 21.4 21 21.3
003C0D50 2019-02-12 20:30:21 21.4 21 21.3
003C0D50 2019-02-12 20:00:07 21.5 21 21.2
003C0D50 2019-02-12 19:29:52 21.5 20 21.3
003C0D50 2019-02-12 18:59:37 21.6 20 21.4
003C0D50 2019-02-12 18:29:23 21.6 20 21.4
003C0D50 2019-02-12 17:59:09 21.6 19 21.4
003C0D50 2019-02-12 17:28:54 22 19 21.4
003C0D50 2019-02-12 17:27:43 21.7 19 21.5
003C0D50 2019-02-12 16:57:27 21.8 19 21.5
003C0D50 2019-02-12 16:27:12 21.9 19 21.5
003C0D50 2019-02-12 15:56:57 21.9 19 21.4
003C0D50 2019-02-12 15:26:42 21.9 19 21.6
003C0D50 2019-02-12 14:56:26 21.7 19 21.4
003C0D50 2019-02-12 14:26:10 21.5 20 21.3
003C0D50 2019-02-12 13:55:54 21.4 20 21.4
003C0D50 2019-02-12 13:25:38 21.4 20 21.4
003C0D50 2019-02-12 12:55:23 21.4 20 21.3
003C0D50 2019-02-12 12:25:08 21.4 20 21.3
003C0D50 2019-02-12 11:54:55 21.4 21 21.4
003C0D50 2019-02-12 11:24:39 21.4 21 21.5
003C0D50 2019-02-12 10:54:24 21.3 22 21.4
003C0D50 2019-02-12 10:24:09 21.3 22 21.5
003C0D50 2019-02-12 09:53:53 21.2 23 21.7
003C0D50 2019-02-12 09:23:39 21.1 23 21.6
003C0D50 2019-02-12 08:53:23 21 24 21.5
003C0D50 2019-02-12 08:23:07 20.9 24 21.5
003C0D50 2019-02-12 07:52:50 20.9 24 21.5
003C0D50 2019-02-12 07:22:35 20.9 26 21.6
003C0D50 2019-02-12 06:52:20 20.9 26 21.5
003C0D50 2019-02-12 06:22:05 20.9 26 21.5
003C0D50 2019-02-12 05:51:50 20.9 26 21.5
003C0D50 2019-02-12 05:21:32 20.9 26 21.4
003C0D50 2019-02-12 04:51:15 20.9 26 21.4
003C0D50 2019-02-12 04:20:58 20.9 27 21.3
003C0D50 2019-02-12 03:50:39 20.9 27 21.3
003C0D50 2019-02-12 03:20:22 21 27 21.2
003C0D50 2019-02-12 02:50:04 21 27 21.1
003C0D50 2019-02-12 02:19:47 21 27 21.2
003C0D50 2019-02-12 01:49:29 21 27 21.4
003C0D50 2019-02-12 01:19:11 21 27 21.4
003C0D50 2019-02-12 00:48:54 21 27 21.4
003C0D50 2019-02-12 00:18:38 21.1 27 21.5
003C0D50 2019-02-11 23:48:20 21.1 27 21.5
003C0D50 2019-02-11 23:18:04 21.1 27 21.6
003C0D50 2019-02-11 22:47:46 21.1 27 21.5
003C0D50 2019-02-11 22:17:29 21.2 27 21.6
003C0D50 2019-02-11 21:47:11 21.3 27 21.4
003C0D50 2019-02-11 21:16:54 21.3 27 21.2
003C0D50 2019-02-11 20:46:35 21.4 27 21.2
003C0D50 2019-02-11 20:16:16 21.5 27 21.5
003C0D50 2019-02-11 19:45:57 21.5 27 22
003C0D50 2019-02-11 19:15:38 21.6 27 21.7
003C0D50 2019-02-11 18:45:17 21.7 27 21.4
003C0D50 2019-02-11 18:14:58 21.9 27 20.7
003C0D50 2019-02-11 17:44:41 22.1 28 20.1
003C0D50 2019-02-11 17:14:17 22.3 28 16.6
003C0D50 2019-02-11 16:43:56 22.3 31 0